Location: Austin
(30.3000°N, 97.7500°W)
Time: 12:03:11
(UTC-05:00)

SL-08 R/B - Pass Details

Date: 08 April 2026
Orbit: 667 x 729 km, 98.5° (Epoch: 11 April)

Event Time Altitude Azimuth Distance (km) Brightness Sun altitude
Rises 21:54:22 0° 10° (N) 3,135 6.9 -25.4°
Reaches altitude 10° 21:56:38 10° 9° (N) 2,217 6.1 -25.9°
Maximum altitude 22:01:30 78° 284° (WNW) 747 3.4 -26.8°
Enters shadow 22:01:59 69° 230° (SW) 776 3.5 -26.9°
